Вернуться в каталог

STARLINK-5332

АктивенСвязьVLEO
NORAD 55285·PAYLOAD·🇺🇸 United States

Запущен Jan 19, 2023 с Vandenberg Space Force Base

Loading…

Ближайшие Пролёты (ближайшие 24 часа)

TLE

СвежийSource: CelesTrak SupGP

Эпоха: Sep 14, 2026, 22:06 UTC

1 55285C 23010S   26257.92131944  .00037736  00000+0  31616-2 0  2577
2 55285  70.0004 247.2536 0003240 266.9970 285.8631 14.98320605    17

Отслеживайте STARLINK-5332 в реальном времени с AllMySat

Download on the App Store